Flag for Belgium Weather past 2 weeks in Charleroi, Belgium

52 °F

Passing clouds.

Feels Like: 51 °F
Forecast: 40 / 61 °F
Wind: 5 mph from West

Location: Charleroi / Gosselies

Current Time: Oct 8, 2015 at 10:17:23 PM

Latest Report: Oct 8, 2015 at 9:50 PM

Visibility: N/A

Pressure: 30.18 "Hg

Humidity: 94%

Dew point: 50 °F

Location of CharleroiLocation

Historic Weather in Charleroi — Graph


Charleroi temperature yesterday

Maximum temperature yesterday: 59 °F (at 12:20 AM)
Minimum temperature yesterday: 52 °F (at 8:20 PM)
Average temperature yesterday: 55 °F

Past Weeks' High & Low Weather Summary

High66 °F (Oct 3, 2:50 PM)100% (Sep 24, 6:50 PM)30.63 "Hg (Sep 24, 6:50 PM)
Low39 °F (Oct 2, 5:50 AM)39% (Oct 1, 3:20 PM)29.56 "Hg (Oct 6, 2:20 PM)
Average54 °F80%30.16 "Hg
* Reported Sep 23 8:20 PM — Oct 8 8:50 PM, Charleroi, Weather by CustomWeather, © 2015

Note: Actual official high and low records may vary slightly from our data, if they occured in-between our weather recording intervals... More about our weather records


Charleroi weather history for previous 24 hours

Time TempWeatherWind HumidityBarometerVisibility
8:50 PM
Thu, Oct 8
52 °FPassing clouds.3 mph94%30.18 "HgN/A
8:20 PM54 °FPassing clouds.3 mph88%30.18 "HgN/A
7:50 PM52 °FPartly sunny.3 mph100%30.18 "HgN/A
7:20 PM54 °FPassing clouds.3 mph94%30.18 "HgN/A
6:50 PM54 °FPartly sunny.2 mph94%30.15 "HgN/A
6:20 PM54 °FPartly sunny.5 mph94%30.15 "HgN/A
5:50 PM54 °FPartly sunny.3 mph94%30.15 "HgN/A
5:20 PM54 °FPartly sunny.1 mph88%30.15 "HgN/A
4:50 PM55 °FPartly sunny.2 mph82%30.15 "HgN/A
4:20 PM55 °FBroken clouds.2 mph82%30.15 "HgN/A
3:50 PM55 °FBroken clouds.1 mph77%30.15 "HgN/A
3:20 PM55 °FBroken clouds.1 mph82%30.15 "HgN/A
2:50 PM54 °FBroken clouds.2 mph88%30.15 "HgN/A
2:20 PM54 °FBroken clouds.3 mph88%30.15 "HgN/A
1:50 PM54 °FBroken clouds.2 mph88%30.15 "HgN/A
1:20 PM54 °FBroken clouds.2 mph88%30.15 "HgN/A
12:50 PM54 °FPartly sunny.3 mph88%30.15 "HgN/A
12:20 PM52 °FPartly sunny.2 mph94%30.15 "HgN/A
11:50 AM52 °FPartly sunny.5 mph94%30.15 "Hg4 mi
11:20 AM52 °FFog.5 mph94%30.15 "Hg2 mi
10:50 AM50 °FDrizzle. Fog.5 mph100%30.12 "Hg1 mi
10:20 AM50 °FDrizzle. Fog.5 mph100%30.12 "Hg1 mi
9:50 AM50 °FDrizzle. Fog.3 mph100%30.12 "Hg1 mi
9:20 AM50 °FDrizzle. Fog.2 mph100%30.12 "Hg1 mi
8:50 AM50 °FDrizzle. Fog.5 mph100%30.09 "Hg1 mi
8:20 AM50 °FDrizzle. Fog.6 mph100%30.09 "Hg1 mi
7:50 AM50 °FDrizzle. Fog.6 mph100%30.09 "Hg1 mi
7:20 AM50 °FDrizzle. Fog.8 mph100%30.07 "Hg1 mi
6:50 AM50 °FPartly cloudy.7 mph100%30.07 "Hg2 mi
6:20 AM50 °FPassing clouds.9 mph100%30.07 "Hg3 mi
5:20 AM50 °FPassing clouds.8 mph100%30.07 "Hg2 mi
4:50 AM50 °FPassing clouds.9 mph100%30.07 "Hg2 mi
4:20 AM50 °FPassing clouds.8 mph100%30.07 "Hg2 mi
3:50 AM50 °FPassing clouds.9 mph100%30.04 "Hg2 mi
3:20 AM50 °FPassing clouds.9 mph100%30.04 "Hg2 mi
2:50 AM50 °FPassing clouds.10 mph100%30.04 "Hg2 mi
2:20 AM52 °FPassing clouds.9 mph94%30.04 "Hg2 mi
1:50 AM52 °FPassing clouds.10 mph94%30.04 "Hg4 mi
1:20 AM52 °FPassing clouds.10 mph94%30.04 "HgN/A
12:50 AM52 °FPassing clouds.10 mph94%30.04 "HgN/A
12:20 AM52 °FPassing clouds.9 mph94%30.04 "HgN/A
11:50 PM
Wed, Oct 7
52 °FPartly cloudy.12 mph94%30.04 "HgN/A
10:50 PM52 °FPartly cloudy.10 mph94%30.04 "HgN/A
10:20 PM52 °FPassing clouds.10 mph100%30.01 "HgN/A
Weather by CustomWeather, © 2015

See weather overviewHow to use our weather pages